Time,TemperatureF,DewpointF,PressureIn,WindDirection,WindDirectionDegrees,WindSpeedMPH,WindSpeedGustMPH,Humidity,HourlyPrecipIn,Conditions,Clouds,dailyrainin,SoftwareType,DateUTC
2014-11-27 00:00:00,45.8,14.6,30.20,SW,229,3.0,6.0,28,0.00,,,0.00,vanprod-2.3,2014-11-27 07:00:00,
2014-11-27 00:08:00,46.2,14.1,30.19,SW,229,3.0,3.0,27,0.00,,,0.00,vanprod-2.3,2014-11-27 07:08:00,
2014-11-27 00:16:00,47.0,13.9,30.18,SW,229,2.0,3.0,26,0.00,,,0.00,vanprod-2.3,2014-11-27 07:16:00,
2014-11-27 00:24:00,47.3,14.2,30.18,SW,229,0.0,3.0,26,0.00,,,0.00,vanprod-2.3,2014-11-27 07:24:00,
2014-11-27 00:32:00,47.4,14.3,30.18,SW,229,0.0,0.0,26,0.00,,,0.00,vanprod-2.3,2014-11-27 07:32:00,
2014-11-27 00:40:00,47.3,14.2,30.18,SW,229,0.0,0.0,26,0.00,,,0.00,vanprod-2.3,2014-11-27 07:40:00,
2014-11-27 00:48:00,45.8,14.6,30.19,SW,229,0.0,2.0,28,0.00,,,0.00,vanprod-2.3,2014-11-27 07:48:00,
2014-11-27 00:56:00,45.5,14.3,30.19,SW,229,0.0,0.0,28,0.00,,,0.00,vanprod-2.3,2014-11-27 07:56:00,
2014-11-27 01:04:00,45.2,13.2,30.18,SW,229,0.0,0.0,27,0.00,,,0.00,vanprod-2.3,2014-11-27 08:04:00,
2014-11-27 01:12:00,45.8,14.6,30.17,SW,229,0.0,0.0,28,0.00,,,0.00,vanprod-2.3,2014-11-27 08:12:00,
2014-11-27 01:20:00,46.2,14.1,30.17,SW,229,0.0,0.0,27,0.00,,,0.00,vanprod-2.3,2014-11-27 08:20:00,
2014-11-27 01:28:00,46.2,14.1,30.17,SW,229,0.0,0.0,27,0.00,,,0.00,vanprod-2.3,2014-11-27 08:28:00,
2014-11-27 01:36:00,46.4,14.3,30.17,SW,229,0.0,0.0,27,0.00,,,0.00,vanprod-2.3,2014-11-27 08:36:00,
2014-11-27 01:44:00,46.4,15.1,30.17,SW,229,0.0,2.0,28,0.00,,,0.00,vanprod-2.3,2014-11-27 08:44:00,
2014-11-27 01:52:00,46.4,15.1,30.17,SW,229,0.0,0.0,28,0.00,,,0.00,vanprod-2.3,2014-11-27 08:52:00,
2014-11-27 02:00:00,47.0,14.8,30.17,SW,229,0.0,0.0,27,0.00,,,0.00,vanprod-2.3,2014-11-27 09:00:00,
2014-11-27 02:08:00,46.5,15.2,30.17,SW,230,3.0,5.0,28,0.00,,,0.00,vanprod-2.3,2014-11-27 09:08:00,
2014-11-27 02:16:00,45.8,13.7,30.16,WSW,247,4.0,6.0,27,0.00,,,0.00,vanprod-2.3,2014-11-27 09:16:00,
2014-11-27 02:24:00,46.4,14.3,30.16,WSW,247,0.0,2.0,27,0.00,,,0.00,vanprod-2.3,2014-11-27 09:24:00,
2014-11-27 02:32:00,47.0,14.8,30.15,WSW,247,0.0,0.0,27,0.00,,,0.00,vanprod-2.3,2014-11-27 09:32:00,
2014-11-27 02:40:00,46.5,15.2,30.15,WSW,247,1.0,2.0,28,0.00,,,0.00,vanprod-2.3,2014-11-27 09:40:00,
2014-11-27 02:48:00,45.7,14.5,30.15,WSW,247,0.0,3.0,28,0.00,,,0.00,vanprod-2.3,2014-11-27 09:48:00,
2014-11-27 02:56:00,45.5,14.3,30.15,WSW,247,0.0,0.0,28,0.00,,,0.00,vanprod-2.3,2014-11-27 09:56:00,
2014-11-27 03:04:00,45.5,14.3,30.15,WSW,247,0.0,2.0,28,0.00,,,0.00,vanprod-2.3,2014-11-27 10:04:00,
2014-11-27 03:12:00,45.1,14.0,30.16,WSW,247,0.0,0.0,28,0.00,,,0.00,vanprod-2.3,2014-11-27 10:12:00,
2014-11-27 03:20:00,45.7,13.6,30.15,WSW,247,0.0,0.0,27,0.00,,,0.00,vanprod-2.3,2014-11-27 10:20:00,
2014-11-27 03:28:00,46.4,14.3,30.14,WSW,247,0.0,2.0,27,0.00,,,0.00,vanprod-2.3,2014-11-27 10:28:00,
2014-11-27 03:36:00,46.5,14.3,30.14,WSW,258,1.0,4.0,27,0.00,,,0.00,vanprod-2.3,2014-11-27 10:36:00,
2014-11-27 03:44:00,45.7,14.5,30.14,West,274,6.0,7.0,28,0.00,,,0.00,vanprod-2.3,2014-11-27 10:44:00,
2014-11-27 03:52:00,45.4,13.4,30.16,WNW,296,4.0,6.0,27,0.00,,,0.00,vanprod-2.3,2014-11-27 10:52:00,
2014-11-27 04:00:00,46.2,13.2,30.14,WNW,299,5.0,6.0,26,0.00,,,0.00,vanprod-2.3,2014-11-27 11:00:00,
2014-11-27 04:08:00,45.8,12.9,30.15,WNW,298,1.0,4.0,26,0.00,,,0.00,vanprod-2.3,2014-11-27 11:08:00,
2014-11-27 04:16:00,45.5,11.7,30.15,WNW,299,1.0,3.0,25,0.00,,,0.00,vanprod-2.3,2014-11-27 11:16:00,
2014-11-27 04:24:00,46.0,11.2,30.15,WNW,298,2.0,3.0,24,0.00,,,0.00,vanprod-2.3,2014-11-27 11:24:00,
2014-11-27 04:32:00,46.5,10.7,30.14,WNW,298,0.0,2.0,23,0.00,,,0.00,vanprod-2.3,2014-11-27 11:32:00,
2014-11-27 04:40:00,46.5,10.7,30.15,WNW,299,1.0,3.0,23,0.00,,,0.00,vanprod-2.3,2014-11-27 11:40:00,
2014-11-27 04:48:00,46.5,10.7,30.15,WNW,298,0.0,0.0,23,0.00,,,0.00,vanprod-2.3,2014-11-27 11:48:00,
2014-11-27 04:56:00,46.8,11.0,30.15,WNW,298,0.0,0.0,23,0.00,,,0.00,vanprod-2.3,2014-11-27 11:56:00,
2014-11-27 05:04:00,46.2,10.5,30.19,WNW,298,0.0,0.0,23,0.00,,,0.00,vanprod-2.3,2014-11-27 12:04:00,
2014-11-27 05:12:00,45.7,11.0,30.19,WNW,299,0.0,2.0,24,0.00,,,0.00,vanprod-2.3,2014-11-27 12:12:00,
2014-11-27 05:20:00,45.5,11.7,30.19,WNW,299,0.0,0.0,25,0.00,,,0.00,vanprod-2.3,2014-11-27 12:20:00,
2014-11-27 05:28:00,44.6,11.8,30.21,WNW,287,3.0,6.0,26,0.00,,,0.00,vanprod-2.3,2014-11-27 12:28:00,
2014-11-27 05:36:00,41.8,11.1,30.22,West,271,1.0,5.0,28,0.00,,,0.00,vanprod-2.3,2014-11-27 12:36:00,
2014-11-27 05:44:00,43.1,11.4,30.22,West,271,0.0,0.0,27,0.00,,,0.00,vanprod-2.3,2014-11-27 12:44:00,
2014-11-27 05:52:00,43.2,11.5,30.22,West,268,1.0,5.0,27,0.00,,,0.00,vanprod-2.3,2014-11-27 12:52:00,
2014-11-27 06:00:00,44.2,11.5,30.21,West,268,2.0,3.0,26,0.00,,,0.00,vanprod-2.3,2014-11-27 13:00:00,
2014-11-27 06:08:00,44.6,11.8,30.22,West,268,0.0,2.0,26,0.00,,,0.00,vanprod-2.3,2014-11-27 13:08:00,
2014-11-27 06:16:00,45.7,11.0,30.20,West,268,0.0,3.0,24,0.00,,,0.00,vanprod-2.3,2014-11-27 13:16:00,
2014-11-27 06:24:00,46.0,10.3,30.21,West,274,0.0,5.0,23,0.00,,,0.00,vanprod-2.3,2014-11-27 13:24:00,
2014-11-27 06:32:00,46.0,10.3,30.20,West,274,0.0,0.0,23,0.00,,,0.00,vanprod-2.3,2014-11-27 13:32:00,
2014-11-27 06:40:00,46.4,10.6,30.20,West,275,3.0,5.0,23,0.00,,,0.00,vanprod-2.3,2014-11-27 13:40:00,
2014-11-27 06:48:00,47.3,10.4,30.21,WNW,299,0.0,3.0,22,0.00,,,0.00,vanprod-2.3,2014-11-27 13:48:00,
2014-11-27 06:56:00,47.9,9.9,30.19,WNW,299,0.0,0.0,21,0.00,,,0.00,vanprod-2.3,2014-11-27 13:56:00,
2014-11-27 07:04:00,47.6,10.6,30.21,WNW,299,1.0,3.0,22,0.00,,,0.00,vanprod-2.3,2014-11-27 14:04:00,
2014-11-27 07:12:00,48.0,8.9,30.21,WNW,299,1.0,6.0,20,0.00,,,0.00,vanprod-2.3,2014-11-27 14:12:00,
2014-11-27 07:20:00,47.6,9.6,30.21,WNW,299,0.0,2.0,21,0.00,,,0.00,vanprod-2.3,2014-11-27 14:20:00,
2014-11-27 07:28:00,46.5,8.7,30.22,WNW,298,0.0,0.0,21,0.00,,,0.00,vanprod-2.3,2014-11-27 14:28:00,
2014-11-27 07:36:00,46.2,8.4,30.23,WNW,298,0.0,0.0,21,0.00,,,0.00,vanprod-2.3,2014-11-27 14:36:00,
2014-11-27 07:44:00,46.2,8.4,30.24,WNW,299,2.0,4.0,21,0.00,,,0.00,vanprod-2.3,2014-11-27 14:44:00,
2014-11-27 07:52:00,46.4,8.6,30.24,WNW,298,5.0,6.0,21,0.00,,,0.00,vanprod-2.3,2014-11-27 14:52:00,
2014-11-27 08:00:00,47.0,9.1,30.23,WNW,298,3.0,5.0,21,0.00,,,0.00,vanprod-2.3,2014-11-27 15:00:00,
2014-11-27 08:08:00,47.6,9.6,30.25,WNW,298,1.0,3.0,21,0.00,,,0.00,vanprod-2.3,2014-11-27 15:08:00,
2014-11-27 08:16:00,48.0,9.9,30.25,WNW,298,0.0,5.0,21,0.00,,,0.00,vanprod-2.3,2014-11-27 15:16:00,
2014-11-27 08:24:00,48.8,10.6,30.24,WNW,298,0.0,0.0,21,0.00,,,0.00,vanprod-2.3,2014-11-27 15:24:00,
2014-11-27 08:32:00,49.5,11.2,30.25,WNW,298,0.0,0.0,21,0.00,,,0.00,vanprod-2.3,2014-11-27 15:32:00,
2014-11-27 08:40:00,48.6,11.5,30.25,WNW,298,0.0,0.0,22,0.00,,,0.00,vanprod-2.3,2014-11-27 15:40:00,
2014-11-27 08:48:00,46.5,11.7,30.27,WNW,298,0.0,0.0,24,0.00,,,0.00,vanprod-2.3,2014-11-27 15:48:00,
2014-11-27 08:56:00,46.1,13.1,30.28,WNW,298,0.0,0.0,26,0.00,,,0.00,vanprod-2.3,2014-11-27 15:56:00,
2014-11-27 09:04:00,46.5,13.5,30.28,WNW,298,0.0,0.0,26,0.00,,,0.00,vanprod-2.3,2014-11-27 16:04:00,
2014-11-27 09:12:00,47.0,13.9,30.27,WNW,298,0.0,0.0,26,0.00,,,0.00,vanprod-2.3,2014-11-27 16:12:00,
2014-11-27 09:20:00,48.0,13.9,30.26,WNW,298,0.0,0.0,25,0.00,,,0.00,vanprod-2.3,2014-11-27 16:20:00,
2014-11-27 09:28:00,48.6,15.3,30.26,WNW,298,0.0,0.0,26,0.00,,,0.00,vanprod-2.3,2014-11-27 16:28:00,
2014-11-27 09:36:00,49.8,15.4,30.25,WNW,298,0.0,0.0,25,0.00,,,0.00,vanprod-2.3,2014-11-27 16:36:00,
2014-11-27 09:44:00,51.7,15.1,30.23,WNW,298,0.0,0.0,23,0.00,,,0.00,vanprod-2.3,2014-11-27 16:44:00,
2014-11-27 09:52:00,52.0,15.4,30.23,WNW,298,0.0,0.0,23,0.00,,,0.00,vanprod-2.3,2014-11-27 16:52:00,
2014-11-27 10:00:00,52.5,15.8,30.23,WNW,298,0.0,0.0,23,0.00,,,0.00,vanprod-2.3,2014-11-27 17:00:00,
2014-11-27 10:08:00,52.9,16.1,30.22,WNW,298,0.0,0.0,23,0.00,,,0.00,vanprod-2.3,2014-11-27 17:08:00,
2014-11-27 10:16:00,53.6,16.7,30.22,WNW,298,0.0,0.0,23,0.00,,,0.00,vanprod-2.3,2014-11-27 17:16:00,
2014-11-27 10:24:00,54.5,16.5,30.20,WNW,298,0.0,2.0,22,0.00,,,0.00,vanprod-2.3,2014-11-27 17:24:00,
2014-11-27 10:32:00,55.9,17.6,30.20,WNW,298,0.0,1.0,22,0.00,,,0.00,vanprod-2.3,2014-11-27 17:32:00,
2014-11-27 10:40:00,56.6,14.8,30.19,NW,312,0.0,5.0,19,0.00,,,0.00,vanprod-2.3,2014-11-27 17:40:00,
2014-11-27 10:48:00,57.2,15.3,30.19,NNW,344,0.0,3.0,19,0.00,,,0.00,vanprod-2.3,2014-11-27 17:48:00,
2014-11-27 10:56:00,57.6,15.7,30.19,North,352,1.0,5.0,19,0.00,,,0.00,vanprod-2.3,2014-11-27 17:56:00,
2014-11-27 11:04:00,58.0,17.2,30.20,NE,47,0.0,1.0,20,0.00,,,0.00,vanprod-2.3,2014-11-27 18:04:00,
2014-11-27 11:12:00,58.3,16.2,30.19,North,4,0.0,4.0,19,0.00,,,0.00,vanprod-2.3,2014-11-27 18:12:00,
2014-11-27 11:20:00,59.2,15.7,30.19,North,4,0.0,0.0,18,0.00,,,0.00,vanprod-2.3,2014-11-27 18:20:00,
2014-11-27 11:28:00,59.8,16.2,30.16,North,11,1.0,3.0,18,0.00,,,0.00,vanprod-2.3,2014-11-27 18:28:00,
2014-11-27 11:36:00,60.2,15.2,30.16,North,11,0.0,2.0,17,0.00,,,0.00,vanprod-2.3,2014-11-27 18:36:00,
2014-11-27 11:44:00,60.7,17.0,30.15,NE,37,0.0,1.0,18,0.00,,,0.00,vanprod-2.3,2014-11-27 18:44:00,
2014-11-27 11:52:00,61.5,16.3,30.15,NE,35,0.0,0.0,17,0.00,,,0.00,vanprod-2.3,2014-11-27 18:52:00,
2014-11-27 12:00:00,61.8,15.2,30.14,NE,35,0.0,1.0,16,0.00,,,0.00,vanprod-2.3,2014-11-27 19:00:00,
2014-11-27 12:08:00,62.6,15.8,30.14,North,6,0.0,0.0,16,0.00,,,0.00,vanprod-2.3,2014-11-27 19:08:00,
2014-11-27 12:16:00,63.1,14.7,30.12,North,6,0.0,1.0,15,0.00,,,0.00,vanprod-2.3,2014-11-27 19:16:00,
2014-11-27 12:24:00,63.4,15.0,30.12,North,6,0.0,1.0,15,0.00,,,0.00,vanprod-2.3,2014-11-27 19:24:00,
2014-11-27 12:32:00,63.5,13.5,30.12,North,354,1.0,3.0,14,0.00,,,0.00,vanprod-2.3,2014-11-27 19:32:00,
2014-11-27 12:40:00,63.9,13.8,30.11,NNE,20,0.0,2.0,14,0.00,,,0.00,vanprod-2.3,2014-11-27 19:40:00,
2014-11-27 12:48:00,64.5,14.3,30.11,North,8,0.0,5.0,14,0.00,,,0.00,vanprod-2.3,2014-11-27 19:48:00,
2014-11-27 12:56:00,65.5,13.4,30.09,NE,52,1.0,6.0,13,0.00,,,0.00,vanprod-2.3,2014-11-27 19:56:00,
2014-11-27 13:04:00,65.6,11.7,30.08,NNE,20,3.0,11.0,12,0.00,,,0.00,vanprod-2.3,2014-11-27 20:04:00,
2014-11-27 13:12:00,66.0,13.8,30.07,NNE,25,4.0,7.0,13,0.00,,,0.00,vanprod-2.3,2014-11-27 20:12:00,
2014-11-27 13:20:00,65.8,13.6,30.07,NE,34,5.0,12.0,13,0.00,,,0.00,vanprod-2.3,2014-11-27 20:20:00,
2014-11-27 13:28:00,66.0,12.0,30.07,NE,45,2.0,8.0,12,0.00,,,0.00,vanprod-2.3,2014-11-27 20:28:00,
2014-11-27 13:36:00,66.4,10.3,30.07,North,3,0.0,8.0,11,0.00,,,0.00,vanprod-2.3,2014-11-27 20:36:00,
2014-11-27 13:44:00,66.9,10.7,30.05,NE,56,0.0,5.0,11,0.00,,,0.00,vanprod-2.3,2014-11-27 20:44:00,
2014-11-27 13:52:00,67.3,13.0,30.05,NE,56,1.0,6.0,12,0.00,,,0.00,vanprod-2.3,2014-11-27 20:52:00,
2014-11-27 14:00:00,67.3,11.0,30.05,NE,52,0.0,5.0,11,0.00,,,0.00,vanprod-2.3,2014-11-27 21:00:00,
2014-11-27 14:08:00,67.6,11.3,30.05,NNE,28,1.0,3.0,11,0.00,,,0.00,vanprod-2.3,2014-11-27 21:08:00,
2014-11-27 14:16:00,67.4,11.1,30.06,NE,41,0.0,2.0,11,0.00,,,0.00,vanprod-2.3,2014-11-27 21:16:00,
2014-11-27 14:24:00,67.8,11.4,30.05,ENE,61,2.0,4.0,11,0.00,,,0.00,vanprod-2.3,2014-11-27 21:24:00,
2014-11-27 14:32:00,67.8,9.3,30.04,NNE,16,0.0,4.0,10,0.00,,,0.00,vanprod-2.3,2014-11-27 21:32:00,
2014-11-27 14:40:00,68.3,11.8,30.04,North,0,0.0,1.0,11,0.00,,,0.00,vanprod-2.3,2014-11-27 21:40:00,
2014-11-27 14:48:00,68.3,9.7,30.04,NNE,14,0.0,3.0,10,0.00,,,0.00,vanprod-2.3,2014-11-27 21:48:00,
2014-11-27 14:56:00,67.9,9.4,30.04,NE,47,5.0,7.0,10,0.00,,,0.00,vanprod-2.3,2014-11-27 21:56:00,
2014-11-27 15:04:00,67.4,11.1,30.05,NE,45,2.0,7.0,11,0.00,,,0.00,vanprod-2.3,2014-11-27 22:04:00,
2014-11-27 15:12:00,67.8,11.4,30.04,NE,47,0.0,0.0,11,0.00,,,0.00,vanprod-2.3,2014-11-27 22:12:00,
2014-11-27 15:20:00,67.6,9.1,30.04,North,11,3.0,6.0,10,0.00,,,0.00,vanprod-2.3,2014-11-27 22:20:00,
2014-11-27 15:28:00,67.6,9.1,30.04,North,4,0.0,0.0,10,0.00,,,0.00,vanprod-2.3,2014-11-27 22:28:00,
2014-11-27 15:36:00,67.8,11.4,30.04,North,4,0.0,0.0,11,0.00,,,0.00,vanprod-2.3,2014-11-27 22:36:00,
2014-11-27 15:44:00,67.8,11.4,30.04,North,0,0.0,0.0,11,0.00,,,0.00,vanprod-2.3,2014-11-27 22:44:00,
2014-11-27 15:52:00,67.6,9.1,30.04,ENE,70,0.0,1.0,10,0.00,,,0.00,vanprod-2.3,2014-11-27 22:52:00,
2014-11-27 16:00:00,67.6,9.1,30.04,ENE,69,1.0,2.0,10,0.00,,,0.00,vanprod-2.3,2014-11-27 23:00:00,
2014-11-27 16:08:00,67.4,9.0,30.04,ENE,69,0.0,3.0,10,0.00,,,0.00,vanprod-2.3,2014-11-27 23:08:00,
2014-11-27 16:16:00,67.6,9.1,30.04,ENE,69,0.0,0.0,10,0.00,,,0.00,vanprod-2.3,2014-11-27 23:16:00,
2014-11-27 16:24:00,67.6,9.1,30.04,ENE,69,0.0,1.0,10,0.00,,,0.00,vanprod-2.3,2014-11-27 23:24:00,
2014-11-27 16:32:00,67.3,8.9,30.04,ENE,69,0.0,0.0,10,0.00,,,0.00,vanprod-2.3,2014-11-27 23:32:00,
2014-11-27 16:40:00,66.9,8.6,30.04,ENE,69,0.0,0.0,10,0.00,,,0.00,vanprod-2.3,2014-11-27 23:40:00,
2014-11-27 16:48:00,66.8,12.6,30.04,ENE,69,0.0,0.0,12,0.00,,,0.00,vanprod-2.3,2014-11-27 23:48:00,
2014-11-27 16:56:00,66.0,10.0,30.05,ENE,69,0.0,0.0,11,0.00,,,0.00,vanprod-2.3,2014-11-27 23:56:00,
2014-11-27 17:04:00,65.5,9.6,30.06,NW,323,1.0,4.0,11,0.00,,,0.00,vanprod-2.3,2014-11-28 00:04:00,
2014-11-27 17:16:00,63.1,13.2,30.07,NW,323,0.0,2.0,14,0.00,,,0.00,vanprod-2.3,2014-11-28 00:16:00,